User: anonymous   Login
Location: Libas
(9.8833°N, 125.9833°E)
Time: 09:25:36
(UTC+00:00)
Language:

GPS 2-17 Rocket1 - Orbit

View from above orbital plane
View from above orbital plane
View from above satellite
View from above satellite

Ground track
Ground track

The orbit data is extracted from the following two-line orbital elements,

1 22276U 92089B   21018.66774669  .00000550  00000-0  15526-4 0  9993
2 22276  20.2856 140.0083 0062764 337.8483  48.9570 14.84609777517943
Epoch (UTC): 18 January 2021 16:01:33
Eccentricity: 0.0062764
inclination: 20.2856°
perigee height: 571 km
apogee height: 659 km
right ascension of ascending node: 140.0083°
argument of perigee: 337.8483°
revolutions per day: 14.84609777
mean anomaly at epoch: 48.9570°
orbit number at epoch: 51794

The dashed part of the orbit path shows where the satellite is in the earth's shadow,  

DLR